DateTimeUTC,F1_A11,F1_S11,BsB_S11,BsG_S11,BsR_S11,BbsB_S11,BbsG_S11,BbsR_S11,BaB_A11,BaG_A11,BaR_A11,Tu_S11,T_S11,Uu_S11,U_S11,P_S11,T1_A11
2021-12-05T07:00:00Z,00000200,21000000,,,,,,,-000.13,-000.22,-000.19,19.7,26.4,,00.0,0633.8,31.1
2021-12-05T07:01:00Z,00000200,21000000,,,,,,,0000.08,0000.46,0000.34,19.6,26.4,,00.0,0633.8,31.1
2021-12-05T07:02:00Z,00000200,21000000,,,,,,,-000.06,-000.48,-000.14,19.6,26.4,,00.0,0633.8,31.1
2021-12-05T07:03:00Z,00000200,61000000,,,,,,,-000.12,0000.14,-000.06,19.6,26.4,,00.0,0633.8,31.1
2021-12-05T07:04:00Z,00000200,41000000,-000.53,0000.08,-000.21,0000.16,-000.18,0000.21,0000.25,0000.24,0000.27,19.6,26.2,00.0,00.0,0634.6,31.1
2021-12-05T07:05:00Z,00000200,01000000,-000.01,0000.17,0000.09,0000.50,0000.23,0000.43,-000.06,0000.01,-000.19,19.7,26.2,00.1,00.1,0634.5,31.1
2021-12-05T07:06:00Z,00000200,01000000,-000.27,-000.41,-000.16,0000.34,0000.31,-000.26,0000.27,0000.06,-000.05,19.6,26.1,00.1,00.0,0634.4,31.1
2021-12-05T07:07:00Z,00000200,01000000,-000.19,0000.15,0000.03,0000.86,0000.14,0000.18,-000.07,-000.14,0000.33,19.6,26.1,00.0,00.0,0634.3,31.1
2021-12-05T07:08:00Z,00000200,01000000,-000.12,0000.27,-000.12,-000.11,0000.11,-000.08,0000.11,-000.03,0000.04,19.7,26.1,00.1,00.1,0634.3,31.1
2021-12-05T07:09:00Z,00000200,01000000,0000.25,-000.17,-000.07,0000.02,0000.41,-000.05,0000.12,0000.25,0000.01,19.7,26.1,00.1,00.1,0634.4,31.1
2021-12-05T07:10:00Z,00000200,01000000,0000.19,0000.15,0000.09,0000.31,0000.44,0000.28,0000.22,0000.13,0000.23,19.8,26.2,00.1,00.1,0634.4,31.1
2021-12-05T07:11:00Z,00000200,01000000,-000.76,0000.14,0000.03,0000.71,0000.04,0000.11,-000.09,0000.12,-000.22,19.9,26.2,00.1,00.1,0634.5,31.1
2021-12-05T07:12:00Z,00000200,01000000,-000.38,0000.23,-000.14,0000.14,0000.16,0000.18,0000.22,0000.69,0000.32,19.9,26.2,00.1,00.1,0634.6,31.1
2021-12-05T07:13:00Z,00000200,01000000,-000.50,0000.18,0000.18,0000.40,0000.18,0000.21,-000.08,-000.66,-000.08,19.9,26.2,00.1,00.1,0634.7,31.1
2021-12-05T07:14:00Z,00000200,01000000,-000.32,0000.07,0000.34,0000.92,0000.33,0000.39,0000.13,0000.33,0000.09,19.9,26.2,00.1,00.0,0634.7,31.1
2021-12-05T07:15:00Z,00000200,01000000,0000.01,0000.12,-000.03,0000.46,0000.00,-000.09,-000.31,-000.28,-000.14,19.8,26.2,00.1,00.1,0634.6,31.1
2021-12-05T07:16:00Z,00000200,01000000,0000.10,0000.25,-000.01,0000.67,0000.30,0000.14,0000.25,0000.38,0000.15,19.8,26.2,00.1,00.1,0634.7,31.1
2021-12-05T07:17:00Z,00000200,01000000,0000.46,0000.27,0000.29,0000.62,0000.35,0000.05,0000.03,0000.13,0000.03,19.8,26.2,00.1,00.1,0634.7,31.1
2021-12-05T07:18:00Z,00000200,01000000,-000.64,0000.19,0000.17,0000.04,0000.25,-000.04,0000.36,-000.29,-000.01,19.7,26.2,00.1,00.0,0634.7,31.1
2021-12-05T07:19:00Z,00000200,01000000,0000.02,0000.31,-000.09,-000.18,0000.11,-000.27,-000.08,0000.08,0000.11,19.7,26.1,00.1,00.1,0634.8,31.1
2021-12-05T07:20:00Z,00000200,01000000,0000.55,0000.26,-000.17,0000.35,0000.02,-000.14,0000.24,0000.34,0000.30,19.6,26.1,00.1,00.0,0634.8,31.1
2021-12-05T07:21:00Z,00000200,01000000,-000.09,0000.25,0000.07,0000.60,0000.35,0000.17,-000.42,-000.08,-000.11,19.6,26.1,00.1,00.1,0634.8,31.0
2021-12-05T07:22:00Z,00000200,01000000,-000.15,-000.06,0000.42,0000.58,0000.15,0000.34,0000.46,0000.02,-000.00,19.6,26.1,00.1,00.1,0634.8,31.1
2021-12-05T07:23:00Z,00000200,01000000,-000.25,0000.28,0000.16,0001.08,0000.06,0000.17,-000.06,0000.17,0000.17,19.6,26.1,00.1,00.1,0634.8,31.1
2021-12-05T07:24:00Z,00000200,01000000,-000.31,-000.06,-000.05,-000.46,-000.02,0000.41,0000.21,-000.24,0000.07,19.7,26.1,00.1,00.1,0634.8,31.1
2021-12-05T07:25:00Z,00000200,01000000,-000.07,0000.11,0000.21,0000.42,-000.05,0000.07,0000.10,0000.49,0000.20,19.8,26.1,00.1,00.1,0634.9,31.1
2021-12-05T07:26:00Z,00000200,01000000,0000.42,-000.11,0000.28,0000.22,0000.28,0000.23,0000.46,0000.33,-000.06,19.9,26.1,00.1,00.0,0635.0,31.1
2021-12-05T07:27:00Z,00000200,01000000,-000.51,0000.14,-000.20,0000.98,0000.12,0000.04,-000.37,-000.28,-000.02,19.9,26.2,00.1,00.1,0635.0,31.1
2021-12-05T07:28:00Z,00000200,01000000,0000.05,0000.23,0000.12,0000.07,0000.02,0000.05,0000.40,0000.27,0000.03,20.0,26.2,00.1,00.1,0635.0,31.1
2021-12-05T07:29:00Z,00000200,01000000,-000.17,0000.08,-000.20,0000.14,0000.50,0000.03,-000.14,-000.21,0000.04,20.0,26.2,00.1,00.1,0634.9,31.1
2021-12-05T07:30:00Z,00000200,01000000,0000.44,0000.08,-000.06,0000.44,0000.13,0000.29,0000.23,0000.14,0000.22,20.0,26.2,00.0,00.0,0635.0,31.1
2021-12-05T07:31:00Z,00000200,01000000,-000.01,0000.29,0000.06,0000.33,0000.27,0000.40,-000.03,-000.15,-000.11,19.9,26.2,00.1,00.0,0635.0,31.1
2021-12-05T07:32:00Z,00000200,01000000,-000.30,0000.29,0000.09,0000.69,0000.05,0000.10,0000.18,0000.40,-000.03,19.9,26.2,00.1,00.0,0634.9,31.1
2021-12-05T07:33:00Z,00000200,01000000,0000.68,0000.03,-000.03,0000.18,0000.02,-000.31,-000.32,0000.07,0000.18,19.9,26.2,00.1,00.0,0634.9,31.1
2021-12-05T07:34:00Z,00000200,01000000,-000.51,0000.04,0000.30,0000.29,0000.50,0000.30,0000.52,-000.06,0000.29,19.8,26.2,00.1,00.0,0634.9,31.1
2021-12-05T07:35:00Z,00000200,01000000,0000.03,0000.13,0000.29,-000.06,0000.16,0000.35,0000.08,0000.08,0000.16,19.8,26.1,00.0,00.0,0634.9,31.1
2021-12-05T07:36:00Z,00000200,01000000,-000.32,-000.01,-000.03,0000.68,0000.35,-000.02,0000.04,0000.63,-000.12,19.7,26.1,00.1,00.1,0634.9,31.1
2021-12-05T07:37:00Z,00000200,01000000,-000.18,0000.38,0000.18,0000.28,0000.02,0000.23,-000.03,-000.18,0000.13,19.7,26.1,00.1,00.0,0634.9,31.1
2021-12-05T07:38:00Z,00000200,01000000,-000.13,-000.35,0000.21,-000.28,0000.25,0000.14,0000.19,-000.32,0000.13,19.8,26.1,00.1,00.1,0634.9,31.1
2021-12-05T07:39:00Z,00000200,01000000,0000.32,-000.04,-000.16,-000.38,0000.16,-000.05,0000.17,0000.25,-000.18,19.9,26.1,00.0,00.0,0634.9,31.1
2021-12-05T07:40:00Z,00000200,01000000,-000.01,0000.24,-000.07,0000.87,0000.22,0000.26,0000.04,0000.29,0000.07,19.9,26.2,00.1,00.1,0634.9,31.1
2021-12-05T07:41:00Z,00000200,01000000,0000.12,0000.21,0000.20,0000.43,0000.23,0000.40,0000.13,0000.08,0000.48,20.0,26.2,00.1,00.0,0634.9,31.1
2021-12-05T07:42:00Z,00000200,01000000,-000.85,0000.06,-000.11,0000.10,0000.32,0000.25,0000.25,0000.29,0000.13,20.0,26.2,00.1,00.1,0634.9,31.1
2021-12-05T07:43:00Z,00000200,01000000,0000.69,-000.02,0000.12,0000.80,0000.27,0000.15,0000.09,0000.14,-000.06,20.1,26.3,00.1,00.1,0634.8,31.1
2021-12-05T07:44:00Z,00000200,01000000,0000.13,0000.20,-000.09,0000.32,0000.05,0000.26,-000.16,0000.01,-000.22,20.0,26.3,00.1,00.0,0634.8,31.1
2021-12-05T07:45:00Z,00000200,01000000,0000.34,0000.02,-000.22,0000.92,0000.13,-000.08,0000.61,-000.32,0000.25,20.0,26.3,00.1,00.0,0634.8,31.1
2021-12-05T07:46:00Z,00000200,01000000,-000.39,0000.03,0000.16,0000.27,0000.06,0000.25,-000.33,0000.68,0000.12,19.9,26.2,00.1,00.1,0634.8,31.1
2021-12-05T07:47:00Z,00000200,01000000,0000.65,-000.27,-000.20,0000.56,0000.16,-000.18,0000.05,-000.67,0000.07,19.9,26.2,00.1,00.0,0634.9,31.1
2021-12-05T07:48:00Z,00000200,01000000,-000.38,0000.24,0000.05,0000.04,0000.17,0000.14,0000.35,0000.51,-000.21,19.8,26.2,00.1,00.1,0634.9,31.1
2021-12-05T07:49:00Z,00000200,01000000,-000.11,0000.20,0000.12,0000.56,0000.21,0000.02,-000.12,0000.08,0000.49,19.8,26.1,00.1,00.1,0634.9,31.1
2021-12-05T07:50:00Z,00000200,01000000,0000.97,-000.16,0000.25,-000.43,0000.38,0000.15,0000.09,-000.01,-000.01,19.8,26.1,00.0,00.0,0634.9,31.1
2021-12-05T07:51:00Z,00000200,01000000,-000.42,0000.22,0000.05,0000.24,-000.07,0000.21,0000.22,-000.21,-000.14,19.7,26.1,00.1,00.1,0634.9,31.1
2021-12-05T07:52:00Z,00000200,01000000,0000.74,0000.35,-000.11,-000.12,0000.39,0000.11,-000.55,-000.18,-000.27,19.7,26.1,00.1,00.0,0635.0,31.1
2021-12-05T07:53:00Z,00000200,01000000,0000.51,0000.10,0000.18,0000.01,-000.09,0000.46,0000.32,0000.59,0000.45,19.8,26.1,00.1,00.1,0635.0,31.1
2021-12-05T07:54:00Z,00000200,01000000,0000.64,0000.13,-000.03,0000.17,-000.12,0000.55,0000.29,0000.13,-000.09,19.8,26.1,00.1,00.0,0635.0,31.1
2021-12-05T07:55:00Z,00000200,01000000,-000.41,0000.18,0000.02,0000.17,0000.08,0000.23,-000.02,0000.14,0000.16,19.9,26.2,00.1,00.1,0635.0,31.1
2021-12-05T07:56:00Z,00000200,01000000,0000.23,0000.04,-000.12,0000.20,0000.12,0000.07,0000.42,0000.02,0000.21,20.0,26.2,00.1,00.0,0635.0,31.1
2021-12-05T07:57:00Z,00000200,41000000,,,,,,,0000.20,0000.56,-000.28,20.1,26.3,,00.0,0635.1,31.1
2021-12-05T07:58:00Z,00000200,61000000,,,,,,,-000.15,-000.37,0000.30,19.9,26.4,,00.0,0634.1,31.1
2021-12-05T07:59:00Z,00000200,21000000,,,,,,,-000.13,-000.19,0000.02,19.9,26.5,,00.0,0634.1,31.1
